Weather History for Fort Lauderdale, FL

Change the Weather History Date:

Friday, January 10, 2014

  Actual Average Record
Temperature  
Mean Temperature 76 °F -  
Max Temperature 80 °F 77 °F 84 °F (1971)
Min Temperature 72 °F 59 °F 33 °F (1956)
Cooling Degree Days 11    
Growing Degree Days 26 (Base 50)    
Moisture  
Dew Point 70 °F    
Average Humidity 82    
Maximum Humidity 91    
Minimum Humidity 71    
Precipitation  
Precipitation 0.00 in - - ()
Sea Level Pressure  
Sea Level Pressure 30.13 in    
Wind  
Wind Speed 9 mph (ESE)    
Max Wind Speed 17 mph    
Max Gust Speed 24 mph    
Visibility 10 miles    
Events      
Averages and records for this station are not official NWS values.
T = Trace of Precipitation, MM = Missing Value Source: NWS Daily Summary

Daily Weather History Graph

Daily Weather History Graph

Search for Another Location

Airport:

Trip Planner

Search our weather history database for the weather conditions in past years. The results will help you decide how hot, cold, wet, or windy it might be!

Date:

Astronomy

Jan. 10, 2014 Rise Set
Actual Time 7:09 AM EST 5:46 PM EST
Civil Twilight 6:44 AM EST 6:11 PM EST
Nautical Twilight 6:16 AM EST 6:40 PM EST
Astronomical Twilight 5:48 AM EST 7:08 PM EST
Moon 1:42 PM EST (1/10) 2:24 AM EST (1/10)
Length of Visible Light 11h 27m
Length of Day
10h 37m
Waxing Gibbous, 75% of the Moon is Illuminated
Jan 10
Waxing Gibbous
Jan 15
Full
Jan 24
Last Quarter
Jan 30
New
Feb 6
First Quarter

Hourly Weather History & Observations

Time (EST) Temp. Heat Index Dew Point Humidity Pressure Visibility Wind Dir Wind Speed Gust Speed Precip Events Conditions
12:53 AM 75.9 °F - 70.0 °F 82% 30.16 in 10.0 mi SE 9.2 mph - N/A   Overcast
1:53 AM 75.9 °F - 70.0 °F 82% 30.15 in 10.0 mi SE 8.1 mph - N/A   Overcast
2:53 AM 75.0 °F - 69.1 °F 82% 30.14 in 10.0 mi ESE 6.9 mph - N/A   Scattered Clouds
3:07 AM 75.2 °F - 69.8 °F 83% 30.13 in 10.0 mi ESE 8.1 mph - N/A   Mostly Cloudy
3:21 AM 75.2 °F - 69.8 °F 83% 30.13 in 10.0 mi ESE 10.4 mph - N/A   Mostly Cloudy
3:53 AM 75.0 °F - 68.0 °F 79% 30.14 in 10.0 mi ESE 9.2 mph - N/A   Scattered Clouds
4:53 AM 73.9 °F - 69.1 °F 85% 30.14 in 10.0 mi ESE 8.1 mph - N/A   Partly Cloudy
5:53 AM 73.9 °F - 68.0 °F 82% 30.15 in 10.0 mi ESE 4.6 mph - N/A   Clear
6:53 AM 72.0 °F - 68.0 °F 87% 30.16 in 10.0 mi Calm Calm - N/A   Partly Cloudy
7:53 AM 73.9 °F - 69.1 °F 85% 30.16 in 10.0 mi ESE 6.9 mph - N/A   Partly Cloudy
8:53 AM 77.0 °F - 70.0 °F 79% 30.17 in 10.0 mi ESE 11.5 mph - N/A   Scattered Clouds
9:53 AM 77.0 °F - 70.0 °F 79% 30.16 in 10.0 mi SE 16.1 mph 20.7 mph N/A   Scattered Clouds
10:53 AM 78.1 °F - 71.1 °F 79% 30.15 in 10.0 mi SE 17.3 mph 23.0 mph N/A   Scattered Clouds
11:53 AM 79.0 °F - 70.0 °F 74% 30.14 in 10.0 mi SE 15.0 mph 23.0 mph N/A   Scattered Clouds
12:53 PM 79.0 °F - 70.0 °F 74% 30.11 in 10.0 mi ESE 16.1 mph 24.2 mph N/A   Mostly Cloudy
1:53 PM 79.0 °F - 70.0 °F 74% 30.09 in 10.0 mi SE 12.7 mph - N/A   Mostly Cloudy
2:53 PM 80.1 °F 83.2 °F 70.0 °F 71% 30.09 in 10.0 mi SE 12.7 mph - N/A   Scattered Clouds
3:53 PM 78.1 °F - 70.0 °F 76% 30.08 in 10.0 mi ESE 12.7 mph - N/A   Scattered Clouds
4:53 PM 78.1 °F - 71.1 °F 79% 30.09 in 10.0 mi ESE 11.5 mph - N/A   Scattered Clouds
5:53 PM 77.0 °F - 71.1 °F 82% 30.09 in 10.0 mi ESE 11.5 mph - N/A   Scattered Clouds
6:53 PM 75.9 °F - 71.1 °F 85% 30.09 in 10.0 mi ESE 9.2 mph - N/A   Partly Cloudy
7:53 PM 75.0 °F - 71.1 °F 87% 30.12 in 10.0 mi ESE 3.5 mph - N/A   Partly Cloudy
8:53 PM 75.9 °F - 72.0 °F 87% 30.12 in 10.0 mi East 6.9 mph - N/A   Clear
9:53 PM 75.9 °F - 72.0 °F 87% 30.12 in 10.0 mi ESE 8.1 mph - N/A   Clear
10:53 PM 75.9 °F - 72.0 °F 87% 30.12 in 10.0 mi East 8.1 mph - N/A   Clear
11:53 PM 75.9 °F - 73.0 °F 91% 30.10 in 10.0 mi ESE 6.9 mph - N/A   Scattered Clouds